一网星座-0155星 (ONEWEB-0155 )

导读 | 豆包AI

ONEWEB-0155是英国OneWeb低轨宽带卫星星座的组成卫星,于2021年3月25日发射入轨,属于OneWeb第五批次发射的36颗卫星之一。该卫星重约147.5公斤,运行在1200公里高度的近地轨道,配备Ku和Ka波段天线,采用氙等离子体推力器,设计寿命超过7年,旨在为全球提供低时延宽带互联网服务,覆盖航空、海事、偏远地区网络接入等场景。

Basic Information
目录编号:
48057
目录名称:
ONEWEB-0155
国际标识:
2021-025R
轨道中心:
EARTH
卫星名称:
一网星座-0155星
卫星全名:
一网星座-0155星 (ONEWEB-0155 )
卫星状态:
在轨 (已飞行1861 天)
发射日期:
2021-03-25 UTC
国别 :
英国 (GB)
星等 :
--
Orbit Information
数据来源 国际轨道数据 AOE轨道数据
星历时间 2026-04-29T04:23:49+0800
3小时前
查看轨道信息
2026-04-27T10:00:00+0800
1天前
查看轨道信息
半长轴 7587.903km 7587.908km
偏心率 0.0001666 0.0001442
轨道倾角 87.896° 87.896°
近地点辐角 79.986° 66.416°
升交点赤经 330.048° 330.399°
平近点角 280.146° 225.381°
近地点 1208.501km 1208.676km
远地点 1211.031km 1210.866km
周期 109.633分钟 109.633分钟
每日圈数 13.1347 13.134687
Detailed Information
平衡模式:
三轴稳定
覆盖范围:
全球
运营商:
一网卫星公司
运营商所在国:
英国
制造商(研发单位):
一网卫星公司
制造商所在国:
英国
使用方式:
暂无
Satellite Introduction
OneWeb卫星网络由648颗重约125公斤的微型卫星组成,运行在1200公里的轨道上。 每颗卫星都能够提供至少每秒8千兆位的吞吐量,以使用其高吞吐量的Ku频段有效载荷为家庭和移动平台提供互联网接入。该卫星仍在工作。
2D Orbit Map
3D Orbit Map
Orbit Altitude Analysis Chart
Orbit Inclination Analysis Chart
Orbit Comprehensive Analysis Chart
View Comprehensive Chart